User: anonymous   Login
Location: Bieg
(49.3499°N, 10.3835°E)
Time: 23:27:06
(UTC+00:00)
Language:

Cosmos 841 Rocket - Orbit

View from above orbital plane
View from above orbital plane
View from above satellite
View from above satellite

Ground track
Ground track

The orbit data is extracted from the following two-line orbital elements,

1 09023U 76069B   24204.42121223  .00000775  00000-0  25156-3 0  9992
2 09023  74.0443 350.9343 0017999 237.4681 122.4736 14.40452263517606
Epoch (UTC): 22 July 2024 10:06:32
Eccentricity: 0.0017999
inclination: 74.0443°
perigee height: 744 km
apogee height: 770 km
right ascension of ascending node: 350.9343°
argument of perigee: 237.4681°
revolutions per day: 14.40452263
mean anomaly at epoch: 122.4736°
orbit number at epoch: 51760

The dashed part of the orbit path shows where the satellite is in the earth's shadow,  

DLR